Starlink 1541

operational
NORAD ID: 46052 Int'l Des: 2020-055 Owner: SPXS Country: US Constellation: starlink
LEOCIRCULARSTARLINK_TYPE

Über Starlink 1541

Beschreibung wird geladen...

Live-Position

3D-Globus wird geladen...

Nächste Überflüge

Höhenverlauf

Altitude vs Time

uPlot chart will show altitude changes over time

Zweizeiliger Elementsatz

1 46052U 20055AB 26036.77274590 .00002283 00000-0 17213-3 0 9999
2 46052 53.0534 259.8986 0001249 91.6013 268.5119 15.06392819304195
Epoch: 5. Feb. 2026 • Age: 7 hours

Aktueller Status

Höhe 547.7 km
Geschwindigkeit 7.59 km/s
Subsatellitenpunkt 25.27°N, 101.82°W
Startdatum 7. Aug. 2020
Alter 5.4 years
Typ internet

Technische Details

Klassifizierung Payload
Masse 260.00 kg
Trockenmasse 248.00 kg
Gesamtmasse 260.00 kg
Länge 0.20 m
Durchmesser 2.80 m
Spannweite 9.00 m
Form Box + pan
Hersteller SPXS
Bus-Typ Starlink
Phasenstatus In Orbit
Besitzer/Staat SPXS/US

Große Konstellationen

Loading constellations...